Simultaneous Nadir Overpasses (SNOs) Predictions

Prediction of SNOs between NOAA-19 and TERRA Satellite Orbit:

Table of predicted SNOs for the next 14.0 days since TLE Epoch: 8/29/2020
Index Date (NOAA-19) Time (NOAA-19) Lat,Lon (NOAA-19) SZA (NOAA-19 ) Date (TERRA) Time (TERRA) Lat,Lon (TERRA) SZA (TERRA ) Distance(km) Time Diff (sec)
1 08/30/2020 07:36:29 -79.69, -84.75 107.80 08/30/2020 07:37:17 -79.68, -84.73 107.78 0.86 48
2 08/30/2020 08:27:32 79.66, 82.72 72.22 08/30/2020 08:26:44 79.65, 82.68 72.19 1.91 48
3 09/01/2020 13:09:49 79.70, 11.82 73.03 09/01/2020 13:11:00 79.70, 11.99 73.07 3.39 71
4 09/01/2020 14:00:44 -79.67, 179.46 106.95 09/01/2020 14:00:28 -79.66, 179.35 106.98 2.30 16
5 09/03/2020 19:34:04 79.68, -83.86 73.89 09/03/2020 19:34:11 79.68, -83.96 73.89 2.07 7
6 09/06/2020 01:07:16 -79.70, 12.64 105.27 09/06/2020 01:07:55 -79.70, 12.72 105.25 1.75 39
7 09/06/2020 01:58:20 79.68,-179.85 74.75 09/06/2020 01:57:22 79.66,-179.92 74.71 2.70 58
8 09/08/2020 06:40:36 79.70, 109.48 75.60 09/08/2020 06:41:38 79.70, 109.35 75.61 2.77 62
9 09/08/2020 07:31:31 -79.69, -83.16 104.39 09/08/2020 07:31:06 -79.67, -83.24 104.43 2.34 25
